Regional Weather Roundup
Issued by NWS

Home | Current Version | Previous Version | Text Only | Print | Product List | Glossary Off
Versions: 1 2 3 4 5 6 7 8 9 10 11 12 13 14 15 16 17 18 19 20 21 22 23 24 25 26 27 28 29 30 31 32 33 34 35 36 37 38 39 40 41 42 43 44 45 46 47 48 49 50

000
ASUS43 KLOT 041300
RWRIL

ILLINOIS REGIONAL WEATHER ROUNDUP
NATIONAL WEATHER SERVICE CHICAGO/ROMEOVILLE IL
700 AM CST WED MAR 04 2015

NOTE: "FAIR" INDICATES FEW OR NO CLOUDS BELOW 12,000 FEET WITH NO
SIGNIFICANT WEATHER AND/OR OBSTRUCTIONS TO VISIBILITY.

* THESE STATIONS ARE NOT UNDER NWS QUALITY CONTROL. THEY ALSO MAY NOT
  REPORT WEATHER SUCH AS PRECIPITATION OR FOG.

ILZ001-002-007-009-015-016-024-041400-
NORTHWEST ILLINOIS

CITY           SKY/WX    TMP DP  RH WIND       PRES   REMARKS
MOLINE         CLOUDY    11   1  64 NW14      30.14R WCI  -5
STERLING*      CLOUDY    10   3  72 NW10      30.10R WCI  -3
$$

ILZ003-004-008-010-011-017-018-041400-
NORTH CENTRAL ILLINOIS

CITY           SKY/WX    TMP DP  RH WIND       PRES   REMARKS
ROCKFORD       CLOUDY    13   4  67 NW12      30.08R WCI  -1
FREEPORT*      CLOUDY    11   3  70 NW15      30.09R WCI  -5
DE KALB*       MOCLDY     9   4  80 NW14      30.04R WCI  -7
$$

ILZ005-006-012>014-019>023-041400-
NORTHEAST ILLINOIS

CITY           SKY/WX    TMP DP  RH WIND       PRES   REMARKS
CHICAGO-OHARE  MOCLDY    17  10  74 NW9       30.02R WCI   6
CHICAGO-MIDWAY MOCLDY    20  13  74 NW10      30.03R WCI   9
AURORA         PTCLDY    12   5  73 NW16      30.06R WCI  -5
LANSING*       PTCLDY    21  15  76 NW12      30.02R WCI  10
WAUKEGAN       PTCLDY    17  10  74 NW9       30.00S WCI   6
DUPAGE AIRPORT CLEAR     14   7  73 NW13      30.03R WCI   0
WHEELING       CLEAR     17  10  74 NW10      30.03R WCI   5
NORTHERLY ISL    N/A     22  15  75 W8          N/A  WCI  13
$$

LMZ740>746-041400-
SOUTHERN LAKE MICHIGAN

STATION/POSITION SKY/WX   TEMP    WIND        PRES    VSBY  WAVE
                          AIR SEA DIR/SP/G                  HT/PER
                          (F)     (DEG/KT/KT) (MB)    (MI)  (FT/S)
WAUKEGAN HARBOR            18                   N/A
HARRISON CRIB              23     300/ 16/ 20   N/A
BURNHAM HARBOR             22     290/  9/ 13   N/A
CALUMET HARBOR             22     270/ 10/ 15 1015.3R
MICHIGAN CITY              27     280/ 16/ 18   N/A
$$

ILZ025>027-034>036-040-047-049-050-058-095>099-041400-
WEST-CENTRAL ILLINOIS

CITY           SKY/WX    TMP DP  RH WIND       PRES   REMARKS
QUINCY         PTCLDY    14   3  61 NW15      30.17R WCI  -1
MACOMB*        MOCLDY    12   6  79 NW14      30.19R WCI  -4
$$

ILZ028>032-037-038-041>044-048-051>054-059>061-041400-
CENTRAL ILLINOIS

CITY           SKY/WX    TMP DP  RH WIND       PRES   REMARKS
DECATUR        PTCLDY    18  10  71 NW16G25   30.08R WCI   3
PEORIA         PTCLDY    13   2  61 NW9G17    30.12R WCI   1
SPRINGFIELD    PTCLDY    16   7  67 NW15      30.12R WCI   1
TAYLORVILLE    NOT AVBL
$$

ILZ033-039-045-046-055>057-062-063-041400-
EAST-CENTRAL ILLINOIS

CITY           SKY/WX    TMP DP  RH WIND       PRES   REMARKS
CHAMPAIGN      PTCLDY    16  10  77 N15       30.02F WCI   1
MATTOON        MOCLDY    23  18  81 NW15      30.03R WCI  10
$$

ILZ079-100>102-041400-
SOUTHWEST ILLINOIS

CITY           SKY/WX    TMP DP  RH WIND       PRES   REMARKS
ALTON          CLOUDY    23  14  68 NW16G25   30.12R WCI  10
BELLEVILLE     CLOUDY    28  22  79 NW18      30.09R WCI  15
CAHOKIA*       CLOUDY    26  15  63 N17       30.13R WCI  13
$$

ILZ064>066-069>071-074>076-080>082-084>086-088>090-092>094-041400-
SOUTH-CENTRAL ILLINOIS

CITY           SKY/WX    TMP DP  RH WIND       PRES   REMARKS
CARBONDALE     CLOUDY    34  31  88 N7        30.04R FOG     WCI  28
MARION         LGT RAIN  34  32  93 N9        30.03R WCI  26
MT. VERNON     CLOUDY    32  27  80 N8        30.05R WCI  25
$$

ILZ067-068-072-073-078-083-087-091-041400-
SOUTHEAST ILLINOIS

CITY           SKY/WX    TMP DP  RH WIND       PRES   REMARKS
LAWRENCEVILLE  CLOUDY    34  30  85 N9        30.02R WCI  27
$$

ABBREVIATIONS USED IN REMARKS
   TC - TEMPERATURE IN CELSIUS
  WCI - WIND CHILL INDEX
   HX - HEAT INDEX
  VSB - VISIBILITY
$$



USA.gov is the U.S. government's official web portal to all federal, state and local government web resources and services.